Location: Dal�� Lhota
(48.7500°N, 14.0167°E)
Time: 22:26:04
(UTC+00:00)

Lacrosse 4 Rocket - Pass Details

Date: 24 September 2020
Orbit: 543 x 615 km, 68.0° (Epoch: 25 October)

Event Time Altitude Azimuth Distance (km) Brightness Sun altitude
Rises 18:09:29 0° 335° (NNW) 2,718 5.5 -12.7°
Reaches altitude 10° 18:12:17 10° 355° (N) 1,825 4.2 -13.1°
Maximum altitude 18:15:06 18° 39° (NE) 1,396 3.1 -13.6°
Enters shadow 18:16:29 15° 64° (ENE) 1,515 3.1 -13.8°
